Showing default

RISAT-2BR1, 44857

Orbit data source: Space-Track

RISAT-2BR1, 44857 is a payload satellite owned by ISRO (IN) in LEO that was launched on Wed, 11 Dec 2019 UTC via a PSLV-QL launch vehicle from the Sirharikota (SRI). Payload-class satellites include a variety of spacecraft equipped with specific instruments for various scientific and technological missions. These include communications satellites like Starlink; space stations such as the ISS; scientific satellites like the Hubble; Earth observation satellites from companies like Planet Labs, Umbra, and HawkEye 360; GPS; miniature CubeSats for education and research; and military/defense satellites.

Loading next visibility...
Identifier
44857, 2019-089F
Orbit
LEO
Country
Flag of ININ / IND
Related business
Manufacturer
ISRO
Mission
Operational Civil Radar Imaging
Bus & Motor
TECHSAR, Unknown motor
Mass
628 kg wet, 628 kg dry
Launch date (UTC)
2019-12-11 (6 years ago)
Launch vehicle
PSLV-QL
Launch site
Sirharikota (SRI)
Object type
Payload
Rocket body
Debris
Shape & HBR
Hex Cyl + 2 Pan + 1 Dish, Unknown HBR
Radar Cross Section
2.910 m², Large (>1 m²)

Expand to show TLE details & history
Last TLE update: 11 hours ago

TLE from 11 hours ago
0 RISAT-2BR1
1 44857U 19089F   25342.55728107  .00005285  00000-0  40811-3 0  9993
2 44857  36.9582 162.4452 0011671  66.2960 293.9006 15.01321952328531
Epoch: 2025-12-08T13:22Z
TLE epoch observation values (Epoch: 2025-12-08T13:22:29.084Z)
Latitude
0.00001°
Longitude
-115.73057°
Altitude
558.668 km
Speed
7.586 km/s
True Right ascension
10h 49m 46s
True Declination
0° 00' 00"
Sunlit
Object was in daylight at epoch
Visualization orbit readout
Latitude
Unknown
Longitude
Unknown
Altitude
Unknown
Speed
Unknown
Apparent Right ascension
Unknown
Apparent Declination
Unknown
Sunlit
N/A
Visualization observer readout
Local Sidereal Time
22:12:38
Azimuth
Unknown
Elevation
Unknown
Doppler factor
Unknown
Orbital elements
Apogee altitude
573.833 km
Perigee altitude
557.625 km
Semi-major axis
6,943.866 km
Eccentricity
0.00117
Inclination
36.9582°
RAAN
162.4452°
Arg. of periapsis
66.296°
True anomaly
293.77826°
Mean anomaly
293.9006°
Eccentric anomaly
293.83944°
Mean motion
3.75095 °/min
Orbital period
95.98 mins
BSTAR
0.00040811
Loading maneuver chart data...
Computing Atmospheric mass density...
Loading historical data...
Loading historical data...
Loading historical data...
Loading historical data...
Loading historical data...
Loading historical data...
Loading historical data...

Documentation

Showing up to 5 results
|